Theta_e
332 331 335 335 337 338 339 339 337 338 336 335 336 337 337 338 339 338 338 338 338 338 338 338 338 338 338 338 338 338 338 338 337 337 336 336 335 335 335 335 336 336 337 337 338 338 338 339 340 340 339 339 338 338 338 337 337 336 336 336 335 332 330 330 330 333 336 336 337 337 338 339 339 338 339 341 342 339 339 338 338 338 338 340 340
331 332 335 335 336 337 338 339 338 339 338 337 338 337 338 338 339 338 338 338 338 338 338 338 338 338 338 338 338 338 338 338 338 338 337 337 337 337 336 337 337 337 337 338 339 338 338 339 339 339 339 338 338 338 338 337 337 337 336 336 336 332 328 329 329 333 337 336 336 336 336 337 338 338 337 337 339 339 339 338 338 338 339 339 337
331 332 334 334 336 337 338 338 338 339 339 339 339 338 338 338 339 339 339 338 338 338 338 339 339 339 338 338 338 338 338 338 338 337 337 337 337 337 337 337 338 338 338 338 339 338 339 339 339 340 339 338 338 338 337 337 337 337 337 336 335 331 328 327 327 330 336 338 336 335 334 336 340 340 338 336 335 337 339 338 338 338 339 340 339
331 332 333 333 334 336 337 337 337 338 339 339 339 338 338 338 338 339 338 338 339 339 339 339 339 339 339 338 339 338 338 338 338 337 337 336 337 337 338 337 337 338 339 339 339 339 340 340 340 340 339 338 338 338 338 338 337 337 337 335 333 331 329 328 326 327 333 338 337 336 334 336 339 340 340 338 336 335 336 336 334 333 333 335 337
331 332 333 332 333 335 336 337 337 337 338 338 338 337 337 338 338 338 338 339 339 339 339 339 339 339 339 338 338 338 337 337 337 337 336 335 336 337 337 337 337 338 338 339 339 339 339 339 339 339 338 338 338 338 337 336 336 336 335 334 332 331 330 329 328 326 328 334 336 337 336 337 338 339 340 340 338 335 335 337 334 333 331 329 328
331 332 332 332 334 334 335 336 336 337 337 337 337 336 337 338 338 339 339 339 339 339 338 338 338 338 338 337 337 336 336 336 336 335 334 334 334 335 336 336 337 337 337 338 338 338 337 337 337 337 337 337 336 336 336 335 335 335 333 332 331 330 330 329 329 327 326 327 331 335 337 337 338 338 339 340 339 338 337 338 338 337 334 331 328
331 331 332 331 332 332 332 334 335 336 336 336 336 336 337 337 337 338 337 337 338 338 337 337 336 336 336 335 335 335 335 334 334 333 333 333 333 333 334 335 336 336 336 336 336 335 334 334 334 334 334 335 335 334 334 333 332 332 331 330 330 330 330 330 329 329 328 326 326 331 335 336 337 337 338 339 339 339 338 338 339 337 335 333 332
330 330 330 328 328 328 327 330 334 333 330 331 333 334 335 335 335 335 335 335 335 335 335 335 334 334 333 333 333 333 333 333 332 331 330 330 331 331 332 332 334 334 334 334 333 332 331 332 332 331 331 331 332 332 331 331 329 329 329 329 329 329 329 329 329 329 329 328 326 327 331 333 335 335 337 338 337 338 338 338 337 336 334 334 333
329 328 327 327 326 326 324 326 332 329 325 328 331 333 333 333 333 332 332 332 332 332 332 332 331 331 331 330 330 330 330 330 330 328 328 328 328 328 329 330 331 332 331 330 330 329 329 329 329 329 329 328 328 327 327 327 326 326 325 325 326 326 327 328 328 328 329 329 328 326 327 330 332 332 333 336 336 337 338 336 335 334 333 332 332
327 327 326 326 324 325 323 324 329 328 325 327 329 331 331 331 331 331 331 330 330 330 330 330 329 329 329 329 328 328 327 326 326 325 325 325 324 324 326 327 328 328 327 326 325 326 326 326 325 324 323 322 321 320 319 319 318 318 318 318 319 320 321 323 324 325 327 328 329 327 326 329 331 331 331 334 336 336 337 336 335 334 332 331 331
327 327 325 325 323 323 324 326 330 329 327 328 329 329 331 330 330 330 329 329 329 329 329 328 328 328 327 326 326 324 323 322 321 319 319 318 318 319 321 323 324 324 323 322 321 320 318 316 315 313 311 310 309 309 308 308 307 307 308 308 309 310 311 313 315 318 321 324 327 328 327 329 331 331 331 334 336 337 337 336 335 334 332 331 329
327 327 325 324 322 321 325 329 329 330 329 329 330 329 329 329 329 329 328 329 328 328 328 327 326 325 323 321 319 317 316 315 315 314 312 311 310 310 311 314 316 317 317 316 314 311 308 305 304 302 302 301 301 301 300 300 300 300 301 301 301 302 303 303 306 309 312 317 322 325 326 328 329 331 332 334 335 336 336 336 335 334 333 332 331
327 326 325 322 320 320 323 329 329 329 329 328 329 328 328 328 329 328 328 328 327 327 326 325 322 320 318 316 315 312 311 309 308 307 306 305 303 303 303 304 305 306 306 306 305 304 305 302 300 299 299 298 298 298 298 298 298 298 298 299 299 299 300 300 301 302 305 309 314 319 323 326 328 330 332 334 334 335 336 335 335 335 334 333 333
327 326 324 321 319 318 321 327 327 327 328 327 328 327 328 327 328 327 326 326 326 326 323 320 317 315 314 312 310 308 306 304 303 302 301 300 299 299 299 299 299 299 299 300 300 301 303 302 301 300 299 299 299 298 298 298 297 298 298 298 299 300 300 300 301 302 303 306 310 316 320 324 327 329 330 331 332 333 334 335 334 335 334 333 334
327 326 324 323 321 318 319 323 325 327 327 326 327 326 327 327 327 326 326 326 325 323 318 314 311 309 307 305 303 302 302 301 301 300 299 299 298 298 298 298 298 298 298 298 299 300 300 300 299 298 298 298 298 298 297 297 297 297 298 298 299 300 301 302 303 303 304 306 311 315 319 323 325 326 327 328 329 329 330 331 331 332 332 332 333
326 326 325 324 322 319 318 321 323 326 326 326 326 326 327 326 326 325 324 323 321 316 311 308 305 302 300 299 299 299 299 299 299 299 298 298 298 298 297 298 298 298 298 299 299 299 299 298 298 297 297 297 297 297 297 297 297 297 297 297 298 298 299 300 302 304 305 307 311 315 318 321 323 324 324 325 326 326 326 327 328 329 329 330 330
326 325 325 324 322 319 318 319 322 324 325 326 326 326 325 325 324 321 319 315 311 307 304 302 300 299 299 298 298 298 298 298 298 298 298 298 298 297 297 297 298 298 298 298 299 298 298 297 297 297 296 297 296 297 297 297 297 297 297 297 297 297 297 297 298 300 303 305 309 312 315 318 319 320 322 323 323 324 324 325 326 326 327 328 328
325 325 324 324 322 319 317 318 319 321 322 324 324 323 322 321 319 314 310 306 303 302 300 299 299 298 298 298 298 298 298 298 298 298 298 298 297 297 297 297 298 298 297 297 297 297 297 297 296 296 296 296 296 296 296 296 296 296 296 296 297 296 296 296 296 297 298 300 304 308 312 315 315 317 319 320 320 321 321 323 324 323 323 323 324
323 324 323 323 321 318 316 316 317 318 318 320 320 319 316 314 310 306 304 301 300 300 299 299 298 298 298 298 298 298 298 298 298 298 298 298 297 297 297 296 296 296 296 296 296 296 296 296 296 296 296 296 296 296 296 296 296 296 296 296 296 296 296 296 296 296 296 296 297 300 305 309 312 314 316 317 317 317 318 318 318 318 318 319 320
322 322 322 321 319 316 314 315 316 315 315 316 315 313 310 308 306 303 301 300 299 299 299 299 298 298 298 298 298 298 298 298 298 298 297 297 297 297 297 296 296 296 296 296 296 296 296 295 295 295 296 296 296 296 296 296 296 296 296 296 296 296 296 296 296 296 296 296 296 296 298 301 305 309 312 313 313 313 312 312 311 311 311 311 311
321 321 321 320 318 315 313 314 315 314 313 312 310 308 306 305 304 302 300 299 299 299 299 299 298 298 298 298 298 298 298 298 297 297 297 297 297 297 296 296 296 296 296 296 296 296 295 295 295 295 295 295 295 295 295 295 295 295 295 296 296 296 296 296 296 296 296 296 295 296 296 298 301 305 310 311 312 312 310 309 310 311 312 312 312
320 320 320 319 318 316 314 313 314 313 312 310 308 305 303 304 304 302 300 299 298 298 298 298 298 298 298 298 297 297 297 297 297 297 297 297 297 296 296 296 296 296 296 296 296 296 295 295 295 295 295 295 295 295 295 295 295 295 295 295 295 296 295 295 295 295 295 295 295 295 295 297 299 304 310 312 312 312 312 313 313 314 315 315 316
318 319 319 318 318 317 315 314 313 313 311 309 307 304 303 303 303 302 300 299 298 298 298 298 298 297 297 297 297 297 297 297 297 297 297 297 297 296 296 296 296 296 296 296 296 296 296 295 295 295 295 295 295 295 295 295 295 295 295 295 295 295 295 295 295 295 295 295 295 295 295 296 298 302 307 310 311 311 312 314 314 315 316 317 318
317 317 317 317 317 316 315 313 313 312 310 308 306 304 303 302 303 302 300 298 298 297 298 297 297 297 297 297 297 296 296 296 296 296 296 296 296 296 296 296 296 296 296 296 296 296 295 295 295 295 295 294 295 295 294 295 295 295 295 295 295 295 295 295 294 294 294 294 294 294 294 294 296 299 303 308 310 309 309 311 312 315 316 317 318
315 314 316 316 316 315 314 313 313 312 309 307 305 303 302 302 302 301 299 298 297 297 297 297 297 297 297 297 296 296 296 296 296 296 296 296 297 296 296 296 296 296 296 295 295 295 295 295 294 294 294 294 294 294 294 294 294 294 294 294 294 294 294 294 294 294 294 294 294 294 294 293 294 296 301 306 309 308 309 310 311 314 315 316 316
311 312 314 315 315 314 313 312 312 312 309 306 304 303 301 301 301 300 299 297 297 297 297 297 297 297 297 296 296 296 296 296 296 296 296 296 296 296 296 296 296 296 295 295 295 295 295 294 294 294 294 294 294 294 294 294 294 294 294 294 294 294 294 294 294 294 294 294 294 294 294 293 293 294 298 304 308 309 311 311 312 314 314 314 314
309 311 312 313 313 313 312 312 312 312 309 306 304 303 301 300 299 299 298 297 296 296 297 297 296 297 297 296 296 296 296 296 296 296 296 296 296 296 296 295 296 296 295 295 295 295 295 295 295 295 294 294 294 294 294 294 294 294 294 294 294 294 294 294 294 294 294 294 293 294 293 293 293 294 296 302 306 309 311 311 312 313 313 313 314
308 308 309 310 311 312 312 311 311 311 309 306 304 302 300 299 299 298 297 297 296 296 296 297 296 296 296 296 296 296 296 296 296 296 296 295 295 295 295 295 295 296 295 295 296 296 295 295 295 295 295 295 295 295 294 294 294 294 294 294 294 294 294 294 294 294 294 293 293 293 293 293 293 293 294 299 305 308 309 310 311 312 312 313 313
306 307 307 308 309 310 310 310 310 310 309 306 304 302 300 299 298 298 297 297 296 296 296 296 296 296 296 296 296 296 296 296 296 296 295 295 295 295 295 295 295 296 296 295 296 296 296 296 296 296 296 295 295 295 294 294 294 294 294 293 293 293 293 293 293 293 293 293 293 292 293 293 293 293 293 296 303 306 308 309 310 310 311 312 312
307 307 307 307 307 307 308 309 308 308 308 306 303 301 300 298 298 297 297 296 296 296 296 296 296 296 296 296 296 296 296 296 296 296 295 294 294 295 295 295 295 296 296 296 296 296 296 297 296 296 296 296 296 295 294 294 294 293 293 293 293 293 293 293 293 293 293 292 292 292 292 293 293 294 294 295 300 304 306 307 308 309 310 310 311
306 306 307 307 306 306 307 308 308 307 306 305 303 300 299 298 297 297 297 296 296 296 296 296 296 296 296 296 296 296 296 296 295 295 295 294 294 295 295 295 296 296 296 296 296 296 297 297 296 296 296 296 295 295 294 293 293 293 293 293 293 293 293 293 293 293 292 292 292 292 292 293 294 294 295 295 297 300 304 305 306 307 308 309 309
306 307 307 306 306 306 306 307 307 305 304 304 302 300 299 298 297 297 296 297 296 296 296 296 296 296 296 296 296 295 295 295 294 294 294 295 295 295 295 295 296 296 296 296 296 296 296 296 296 296 296 295 295 294 294 293 293 293 293 293 293 292 292 293 293 292 292 291 291 292 293 294 295 295 295 295 295 296 300 303 304 306 306 307 308
307 308 306 305 306 306 306 306 305 304 303 302 301 299 298 297 297 296 296 296 296 296 296 296 296 296 296 296 296 295 295 294 294 294 294 295 295 296 296 295 296 296 296 296 296 296 296 296 295 295 295 295 294 294 293 293 293 293 292 292 292 292 292 292 292 292 291 291 292 293 294 295 295 295 295 295 294 294 296 297 301 303 304 305 305
308 307 306 306 307 306 305 304 304 304 303 302 300 299 298 297 297 296 296 296 296 296 296 296 296 296 296 296 295 295 295 294 294 294 294 294 295 296 295 295 295 295 296 295 295 296 295 295 295 295 295 294 294 293 293 293 293 293 292 292 292 292 292 292 292 292 291 292 293 294 294 295 295 295 295 295 294 294 294 293 295 298 298 299 300
307 306 307 307 306 305 304 304 304 304 303 302 301 299 299 298 297 297 296 296 296 296 296 296 296 296 296 295 295 295 296 295 294 294 294 294 294 295 295 295 295 295 295 295 295 295 295 295 295 294 294 294 293 293 293 293 293 292 293 293 293 292 292 292 292 291 291 292 293 294 294 295 295 295 295 295 294 294 294 293 293 293 292 293 295
307 308 308 307 305 305 304 304 303 303 303 303 302 301 300 299 298 298 296 296 296 296 296 296 296 295 295 295 295 295 297 296 294 293 293 294 294 295 295 295 295 295 295 294 294 294 294 294 294 294 294 293 293 293 293 293 293 293 293 293 292 292 292 292 292 291 292 293 294 294 293 293 293 294 294 294 293 293 293 293 292 291 291 290 292
308 308 307 306 305 305 304 304 304 303 303 302 302 301 300 299 299 298 297 296 296 296 296 295 295 295 295 295 295 295 297 297 294 293 293 293 294 294 294 294 294 294 294 294 293 293 293 294 294 293 293 293 293 292 292 292 293 292 292 293 292 292 292 291 291 291 293 293 294 293 292 291 291 291 292 293 292 291 291 291 291 290 290 290 290
308 307 307 307 306 305 304 304 303 303 302 302 301 301 300 300 299 298 297 296 295 296 295 295 295 295 295 294 294 295 297 297 295 293 293 293 293 293 294 294 294 294 293 293 293 293 293 293 293 293 292 292 292 292 292 292 292 292 292 293 292 292 291 291 291 292 293 293 292 292 291 290 289 290 290 290 290 290 290 290 290 289 289 289 289
308 307 307 307 306 305 304 303 303 302 301 301 301 300 300 299 299 298 297 296 296 296 295 295 295 295 295 294 294 296 297 297 296 293 292 292 292 292 293 293 293 293 293 293 293 292 292 292 292 293 292 292 292 292 292 292 292 292 292 293 292 291 291 291 291 291 292 291 290 290 290 290 289 290 290 290 289 289 289 289 288 288 288 288 289
308 307 306 306 305 305 303 302 302 301 301 300 300 300 299 299 298 298 297 297 297 296 296 296 296 295 295 295 295 295 296 296 295 293 292 292 292 292 293 293 293 293 293 293 293 293 293 292 292 292 292 292 292 291 292 292 292 292 293 292 291 291 291 291 291 291 290 290 289 289 289 289 289 289 289 289 289 288 288 288 288 288 288 288 288
307 306 306 306 305 304 303 302 301 301 300 300 300 299 299 298 298 298 298 297 297 297 298 298 298 297 296 296 295 295 295 296 295 293 291 292 292 292 292 292 292 293 292 293 293 292 292 292 293 292 292 292 291 291 291 292 292 292 292 292 290 290 291 291 291 290 290 290 289 289 289 288 288 288 288 288 288 288 288 287 287 287 287 287 287
306 306 306 306 305 304 303 302 301 300 300 300 300 299 299 299 299 298 298 298 298 298 298 298 298 298 297 297 296 295 295 295 295 293 291 291 291 291 292 292 292 292 292 291 291 292 292 292 293 293 292 291 291 291 291 291 290 289 290 292 292 291 290 290 291 290 289 289 289 289 288 288 288 287 287 287 287 287 287 287 287 287 287 287 287
307 306 306 305 304 303 302 302 301 300 301 300 300 300 299 299 299 299 298 298 298 298 298 298 298 298 298 298 297 295 294 294 294 292 291 291 291 291 292 292 292 292 291 291 291 292 292 292 293 293 292 291 291 291 291 290 290 288 289 292 294 293 292 290 290 291 289 289 289 288 288 287 287 287 287 287 286 286 286 286 286 286 286 286 286
306 305 305 304 303 303 302 301 301 301 300 300 300 300 299 299 298 298 298 297 297 297 297 297 298 298 298 298 297 296 295 294 293 292 291 291 291 291 291 291 291 291 291 291 292 292 292 292 292 292 292 291 290 290 291 289 289 289 290 291 289 290 295 291 287 290 289 288 288 287 288 288 287 287 286 286 286 286 286 286 286 286 286 286 286
304 304 304 304 303 303 302 301 301 300 300 300 300 299 299 298 297 297 297 297 297 296 296 296 297 297 298 298 297 297 296 294 292 292 291 291 290 291 291 291 291 291 291 291 292 292 292 292 292 292 292 292 291 290 290 289 288 288 289 291 290 292 296 290 286 289 288 287 288 287 287 287 286 286 286 286 286 286 286 286 285 285 285 285 285
304 305 305 304 303 302 301 301 300 300 300 300 299 299 298 298 297 297 296 296 295 296 296 296 296 297 297 297 297 296 296 295 293 292 291 291 290 290 290 291 290 290 291 291 292 292 292 292 291 292 291 291 290 290 290 288 288 287 287 289 289 290 293 288 288 292 288 286 287 287 287 286 286 286 285 285 285 285 285 285 285 285 285 285 285
304 304 304 303 303 302 301 300 300 300 299 299 299 299 298 298 298 297 297 297 296 296 297 297 296 296 296 296 296 296 296 295 294 292 291 291 290 290 290 290 290 290 290 290 291 291 291 291 291 290 290 290 290 289 289 288 287 287 287 288 287 287 288 287 289 292 290 289 287 286 286 285 285 285 285 285 285 284 284 284 285 285 285 285 285
303 303 303 302 302 302 301 300 300 299 299 299 299 298 298 298 298 298 297 297 297 297 296 296 296 296 296 296 296 296 295 295 294 293 292 291 290 290 290 290 290 290 290 290 290 290 290 290 290 289 289 289 289 289 289 288 287 287 286 286 286 286 285 285 286 287 288 291 288 285 285 284 285 285 284 284 284 284 284 283 284 285 285 285 285
302 303 303 302 302 301 301 300 299 299 299 299 299 298 298 298 298 297 297 297 297 297 296 296 295 295 295 295 295 295 295 295 294 293 292 291 290 290 290 290 289 289 289 290 290 290 290 290 290 290 289 289 288 288 288 288 287 287 287 286 285 285 284 284 284 284 285 288 288 286 285 284 284 284 283 283 283 283 283 283 284 285 285 284 284
302 302 302 302 301 300 300 299 299 299 298 299 299 298 298 298 298 297 297 297 297 296 296 295 295 295 294 294 294 294 294 294 294 293 292 291 290 289 289 289 289 289 289 289 289 289 290 290 290 290 289 289 288 288 288 287 287 287 287 286 285 284 284 283 283 283 283 284 286 285 283 283 283 283 283 283 283 283 283 284 284 285 284 284 284
300 301 301 300 300 299 299 299 299 299 298 298 298 298 298 297 298 298 297 297 296 296 295 295 294 294 294 294 293 294 294 294 294 293 293 292 290 289 289 289 289 289 289 289 289 289 290 290 289 289 289 289 289 288 287 287 286 286 286 286 286 285 285 285 284 283 283 284 285 285 283 282 282 282 282 282 282 284 284 284 284 284 284 284 284
Wind_Speed
22 21 20 20 16 14 13 13 14 14 14 14 13 12 13 12 12 12 11 10 10 10 10 10 10 10 10 10 9 8 8 8 8 7 7 7 7 6 6 6 5 5 5 5 5 5 5 5 5 5 5 5 5 5 6 6 6 7 7 7 8 10 11 11 11 10 11 12 12 12 12 11 10 11 11 9 9 8 8 8 7 6 5 5 5
29 23 22 22 19 16 14 13 13 13 14 14 14 13 13 12 12 12 11 11 10 10 10 10 10 10 10 10 10 9 8 8 9 8 8 7 7 6 5 5 6 4 4 4 4 4 4 4 4 4 4 4 4 4 4 5 6 7 7 7 7 9 10 10 10 9 9 10 10 10 11 11 10 11 11 10 10 9 9 8 7 6 6 6 6
30 26 23 22 21 18 16 15 14 13 13 14 14 14 13 12 13 12 12 11 11 10 10 10 10 10 10 11 10 10 9 9 9 9 9 8 9 8 7 6 6 5 4 3 3 4 4 4 4 5 5 5 5 4 4 5 5 5 5 5 7 8 9 9 9 8 8 8 8 8 8 10 10 10 10 9 9 9 8 8 8 7 7 6 6
30 27 24 23 22 20 18 17 15 15 14 15 14 14 13 13 13 12 12 11 11 11 11 10 10 10 10 11 10 9 9 8 9 9 8 9 9 9 8 7 7 6 5 4 4 5 5 5 6 5 5 6 6 5 5 4 4 4 4 5 7 7 7 7 8 7 7 6 7 6 7 9 10 10 8 7 8 8 8 8 8 9 9 8 6
30 27 26 24 22 22 20 19 18 17 16 16 16 15 14 14 13 12 12 12 12 11 11 11 10 11 10 10 9 8 8 7 8 7 8 8 9 9 8 8 7 6 6 7 7 7 6 7 7 6 5 5 5 4 4 3 3 3 3 4 6 6 5 6 6 6 6 5 5 5 6 6 8 9 8 8 7 7 8 9 9 9 10 10 8
30 29 27 25 23 23 22 21 19 18 18 17 17 17 16 14 14 13 13 12 12 12 11 11 10 10 9 9 8 7 7 6 6 6 7 8 8 8 8 8 7 7 6 8 9 9 7 7 6 5 4 3 2 1 1 2 2 2 3 4 5 4 4 4 5 5 5 4 4 4 4 5 5 6 8 9 7 6 7 9 10 10 11 11 10
28 29 27 26 23 23 22 20 18 17 18 18 18 16 16 15 14 13 13 13 12 11 11 11 10 9 9 8 8 7 7 6 6 6 7 8 8 8 9 8 8 8 7 7 6 6 4 3 2 2 2 2 2 2 2 2 2 3 4 5 5 5 4 4 4 4 4 3 3 3 4 4 4 3 6 8 6 5 6 7 9 10 10 11 10
27 29 27 26 23 23 21 19 17 17 19 19 17 15 17 15 14 14 14 13 12 11 10 11 10 9 9 8 8 8 7 7 6 6 7 8 8 8 9 9 9 8 6 5 4 3 3 3 3 3 2 2 2 3 3 4 4 4 5 5 5 5 5 5 4 3 3 2 2 2 3 3 3 2 4 8 8 6 6 7 8 8 9 10 11
27 27 26 25 23 22 21 20 17 17 20 20 18 16 17 16 15 15 14 14 13 12 11 11 11 10 10 10 10 9 9 8 8 8 9 9 8 8 9 10 10 9 7 5 5 4 4 4 4 3 3 3 3 3 4 5 5 5 6 6 6 6 6 5 4 4 3 2 1 1 1 2 2 1 2 6 8 6 7 8 8 8 9 10 11
26 26 24 23 22 23 22 21 16 17 20 19 18 17 17 16 16 16 15 14 14 13 12 12 12 12 12 12 12 11 11 10 10 10 10 9 8 8 10 10 10 9 7 6 5 5 5 4 4 3 3 3 3 3 4 4 5 5 6 6 7 7 7 6 5 4 3 2 1 1 1 1 1 2 2 5 7 7 8 9 9 9 9 9 10
26 25 23 22 22 23 22 19 16 16 19 19 18 17 17 17 17 17 16 16 15 15 14 14 14 14 14 14 13 12 11 11 10 10 10 9 9 9 9 9 9 9 8 7 5 4 4 4 3 3 3 3 3 3 3 3 4 5 5 6 6 7 7 6 6 5 4 3 2 1 1 1 0 1 3 5 5 6 7 7 9 9 10 9 8
26 25 23 22 23 24 21 18 18 17 19 19 18 18 18 18 18 18 18 18 17 17 16 16 15 15 15 14 13 12 11 10 10 9 9 8 8 8 8 9 9 9 8 7 5 4 3 3 3 3 2 2 2 1 1 2 3 4 4 5 5 5 5 5 5 4 4 3 2 2 1 1 1 1 4 6 5 6 7 7 8 9 9 9 9
27 26 24 24 23 24 21 19 19 19 19 19 19 19 19 20 20 19 19 19 18 17 16 15 15 14 14 13 13 12 11 10 9 9 8 7 8 8 8 8 8 8 8 7 6 6 6 5 5 5 4 4 3 3 2 1 0 1 2 3 3 3 3 3 3 2 2 2 2 1 1 1 2 2 4 7 6 5 7 7 8 8 8 9 9
28 27 26 25 23 23 22 20 20 20 19 19 20 20 19 19 19 19 18 18 17 16 16 16 15 14 14 13 12 12 11 10 9 9 9 8 8 8 9 9 9 9 8 8 8 8 8 8 8 7 7 6 6 5 4 3 2 2 2 2 3 3 3 2 1 0 1 1 1 1 2 2 3 4 5 8 8 6 6 6 9 9 6 8 8
28 28 27 26 23 23 23 21 22 22 20 20 20 20 20 19 19 19 19 18 17 17 17 17 15 15 14 13 12 11 10 10 10 10 10 9 10 10 10 10 10 10 9 9 9 9 9 9 8 8 8 7 7 6 5 4 4 4 4 4 5 4 4 3 2 1 1 2 2 2 3 3 4 5 5 6 7 9 9 6 9 9 6 8 8
27 27 27 25 23 23 23 23 23 23 22 21 21 21 20 20 20 19 19 19 18 18 18 16 16 15 14 13 12 12 12 11 11 11 11 11 12 11 11 11 11 11 10 10 10 9 9 8 8 8 7 7 7 6 6 5 5 5 5 6 6 6 6 5 4 2 2 2 2 2 3 3 4 4 5 5 5 6 7 5 6 7 6 7 7
26 26 26 25 24 24 24 24 23 23 23 22 22 22 21 20 19 19 20 20 19 19 18 17 16 15 15 15 14 14 14 14 14 14 13 13 13 12 12 11 11 11 10 10 9 9 8 7 7 7 7 7 7 6 6 5 5 5 6 6 6 6 6 6 5 4 3 2 1 1 2 2 2 2 3 4 4 4 4 4 5 6 7 7 8
26 26 26 26 25 25 25 24 23 24 24 24 24 23 23 21 20 21 21 20 19 19 18 17 17 17 17 16 16 16 16 16 16 15 15 14 13 13 12 11 11 10 10 9 8 8 7 7 7 7 7 7 6 6 6 6 5 5 5 5 5 5 5 5 5 5 4 3 2 0 1 1 0 1 3 4 5 5 6 6 7 8 9 9 10
27 27 27 27 27 26 26 25 25 25 26 26 26 25 24 23 23 22 21 20 19 19 19 19 18 19 18 18 18 18 18 17 17 16 15 14 14 13 12 12 11 11 10 9 8 8 8 7 7 7 6 6 5 5 5 5 5 5 5 5 5 4 4 4 4 5 4 4 3 1 1 0 1 2 4 5 6 7 8 8 9 11 11 12 13
28 28 28 28 28 28 28 27 27 27 28 28 27 26 25 24 24 22 21 20 20 20 20 20 20 20 20 19 19 19 19 18 17 16 15 14 14 14 13 13 12 11 10 9 9 8 8 7 7 6 6 6 5 5 5 5 4 4 4 4 4 3 3 4 4 4 4 4 4 3 3 3 1 2 4 6 7 8 8 9 9 10 11 11 12
30 30 30 30 30 30 29 29 29 29 29 29 28 27 26 25 24 23 21 21 21 21 22 22 21 21 20 19 19 19 18 18 17 16 16 15 15 14 14 13 13 12 11 10 9 8 8 7 6 6 6 5 5 5 4 4 4 4 3 3 3 2 3 4 4 4 4 4 4 4 4 4 3 4 6 7 7 8 7 7 8 9 9 9 9
33 33 33 33 33 32 31 31 31 32 31 30 30 29 28 26 25 23 22 22 22 23 23 22 22 21 20 20 20 20 19 18 18 17 17 16 15 15 15 14 13 13 12 11 10 9 8 7 7 6 6 5 5 4 4 4 4 3 3 3 3 3 3 3 3 4 3 3 3 3 3 3 4 4 7 9 9 9 8 9 9 9 10 10 10
34 37 38 37 36 34 33 33 33 33 33 32 31 30 29 27 26 24 23 23 23 23 23 22 22 22 22 22 21 20 20 19 18 18 18 17 17 16 16 15 14 14 13 12 11 10 9 8 7 6 6 5 4 4 4 4 3 3 3 2 2 3 3 3 3 4 3 3 3 3 2 2 3 4 6 8 9 8 8 9 9 10 10 10 10
39 41 40 39 38 37 36 36 35 35 35 34 32 31 30 29 27 25 24 24 24 23 23 23 23 23 23 22 21 21 20 20 20 19 19 19 18 17 17 16 15 14 13 12 11 10 9 8 8 7 6 6 5 5 4 4 3 3 3 3 3 4 3 3 3 4 4 3 3 2 2 2 2 3 4 8 9 7 7 8 9 10 10 10 10
38 36 38 40 41 40 38 38 37 36 36 35 34 33 32 30 28 27 26 25 25 25 24 24 24 24 24 23 23 22 22 22 21 21 20 20 19 19 18 17 15 14 13 11 11 10 9 8 8 7 6 6 5 5 5 5 5 4 5 4 5 5 4 4 4 4 4 4 3 3 3 2 2 3 4 8 10 8 8 8 9 11 11 11 12
31 35 40 42 43 42 40 39 39 39 38 37 36 34 33 32 30 29 28 27 27 26 26 26 26 26 25 25 25 24 24 24 23 23 22 21 21 20 18 17 15 14 13 11 11 10 9 8 8 7 7 6 5 5 5 6 6 6 6 6 6 6 5 5 5 5 5 4 4 4 4 3 2 3 4 7 10 10 11 10 10 12 12 12 12
34 38 41 41 43 43 42 41 41 41 40 38 37 36 35 34 32 30 30 29 29 29 29 29 28 27 27 27 27 27 27 26 25 25 24 22 21 19 18 16 15 14 13 11 10 10 9 8 7 6 6 5 5 5 6 6 6 6 6 6 6 6 6 6 6 6 6 6 5 5 4 3 3 2 4 7 10 11 11 11 11 12 12 13 13
34 37 38 39 43 45 45 43 43 43 42 40 39 38 37 35 33 32 31 31 31 31 31 30 29 29 29 29 29 29 28 28 27 25 24 22 21 19 18 16 15 13 13 11 9 9 8 7 6 5 5 5 4 5 5 5 5 6 6 6 6 6 6 6 6 6 6 6 6 5 5 4 3 3 3 6 9 11 11 11 11 11 12 12 13
35 39 38 40 43 45 46 46 45 45 44 43 41 40 38 36 35 34 33 32 32 32 31 31 31 31 30 31 31 30 29 28 27 25 24 23 22 20 18 17 15 13 12 11 9 8 7 6 5 4 4 4 4 4 5 5 5 5 6 6 7 7 7 7 7 6 6 6 6 5 5 4 4 4 3 5 8 10 10 10 11 11 11 11 12
40 39 39 42 43 43 45 48 47 46 46 44 43 42 40 39 38 36 35 34 34 33 32 32 32 32 32 33 33 31 29 28 27 26 25 24 23 21 19 17 15 14 12 11 9 7 6 5 4 4 3 3 4 4 4 4 4 5 6 7 7 7 8 8 8 7 6 6 6 5 4 4 4 5 5 6 7 9 10 10 10 11 10 10 11
38 37 42 43 41 42 45 48 48 47 46 46 46 44 43 42 40 38 37 36 35 34 34 34 34 34 34 34 34 32 29 28 27 26 25 25 23 22 20 18 16 14 12 11 10 8 7 5 4 3 2 3 3 4 4 4 4 5 6 7 7 7 8 8 8 7 7 6 5 4 4 4 4 6 7 8 8 8 10 10 10 11 11 10 11
38 43 45 41 40 42 45 46 48 47 47 47 47 46 45 43 42 40 39 38 37 37 36 36 36 36 35 35 35 32 30 29 28 27 26 25 24 22 20 18 17 15 14 12 10 9 7 5 4 3 2 2 3 3 3 3 4 4 6 7 7 7 8 8 7 6 6 6 5 4 4 5 7 8 9 9 9 8 9 10 10 11 11 11 11
43 45 40 38 42 43 44 45 46 47 48 49 48 48 47 45 44 42 41 39 38 38 38 38 38 37 37 36 35 32 30 30 29 28 27 26 24 23 21 19 17 16 15 13 11 9 8 6 5 3 2 2 2 2 2 3 4 5 6 7 7 8 9 8 7 6 6 5 4 5 7 8 9 8 8 7 7 7 8 8 10 12 12 11 12
43 38 37 41 44 43 43 43 45 47 49 49 48 48 47 46 45 43 42 41 40 40 39 39 39 38 37 36 34 33 32 31 30 29 27 26 25 23 22 20 18 17 15 14 12 10 8 7 5 4 3 1 0 1 2 3 4 5 7 8 8 9 10 8 7 6 5 4 6 7 8 8 8 7 6 6 6 6 7 8 10 11 11 11 11
39 36 42 45 43 42 43 43 45 48 49 49 49 49 48 47 46 45 43 43 42 41 40 40 39 39 38 36 35 34 33 32 30 30 28 27 26 24 23 21 19 18 16 14 12 11 9 8 6 5 3 2 1 1 2 4 5 6 8 9 9 10 10 8 7 6 3 5 7 8 8 7 7 6 5 5 5 6 7 8 10 10 10 10 10
41 42 44 41 41 42 43 44 45 47 49 49 49 49 48 47 46 45 44 44 43 42 41 41 40 39 38 37 36 36 35 33 32 31 29 28 27 25 23 21 20 19 17 15 13 12 10 9 7 5 4 3 1 1 2 5 6 7 9 9 10 10 9 8 6 3 3 6 7 8 8 7 6 5 4 4 6 7 7 8 10 10 11 10 10
42 43 42 40 41 43 43 45 46 48 50 49 48 47 46 46 45 45 44 44 43 43 42 41 40 40 39 38 37 37 36 34 33 32 30 29 27 26 24 22 21 19 18 16 14 12 11 9 8 7 5 3 2 1 3 4 6 8 9 10 11 9 7 5 3 3 5 7 7 7 7 8 7 7 5 5 7 7 8 8 9 10 10 10 9
40 41 41 42 42 42 44 46 46 47 47 46 45 44 44 43 43 43 43 43 43 43 42 41 41 41 40 40 39 38 37 35 34 32 31 30 27 26 25 23 22 20 19 17 16 14 12 10 8 8 6 3 2 1 3 4 6 8 9 10 10 7 5 3 4 6 6 5 4 5 7 7 7 7 6 6 7 7 8 9 9 10 10 10 9
38 39 40 41 40 40 42 44 44 44 44 43 42 41 41 40 40 40 40 41 41 42 42 42 42 41 41 41 40 39 38 36 34 33 32 31 29 27 26 25 23 22 20 19 17 16 14 11 9 7 6 3 1 2 3 5 7 7 9 10 8 5 3 3 8 8 6 6 5 4 5 6 6 6 6 7 8 8 8 9 10 10 9 9 9
37 38 38 39 40 40 41 42 43 42 41 40 39 39 38 38 38 37 38 40 41 42 42 43 43 43 43 42 41 40 39 38 36 35 33 32 30 29 28 26 25 24 22 21 19 17 14 12 10 7 5 3 1 1 3 6 6 7 9 9 7 4 1 6 10 9 10 9 9 7 6 7 6 5 6 7 7 8 8 10 11 10 9 8 9
35 36 37 40 42 41 41 42 42 42 42 42 42 42 41 39 38 39 41 42 43 43 43 44 44 44 44 43 42 41 40 39 37 36 35 33 32 30 30 28 27 25 23 21 18 17 15 13 11 8 6 4 3 1 3 5 6 7 7 7 7 5 1 8 12 9 13 8 7 9 7 7 7 3 4 6 6 7 8 11 12 10 8 8 10
34 37 38 41 42 41 42 42 42 43 45 46 46 46 46 46 44 45 45 44 45 45 45 46 45 44 44 43 42 42 41 40 38 37 36 35 34 32 32 30 28 26 23 20 18 18 17 15 13 10 8 6 4 2 1 3 4 5 4 5 6 5 2 7 13 4 8 4 1 4 6 9 8 3 5 7 8 9 9 12 12 9 8 9 11
33 36 38 39 39 40 41 41 42 44 46 46 47 47 47 46 44 43 43 40 41 44 43 43 43 43 43 43 42 42 41 41 39 38 38 37 35 34 33 31 30 27 25 23 22 20 18 16 14 12 10 8 6 3 1 2 3 4 4 3 3 4 3 1 7 10 10 10 7 2 2 9 8 3 6 10 11 11 11 13 11 9 9 10 12
30 33 35 36 38 40 41 41 43 45 46 46 47 45 42 40 37 35 35 34 34 37 36 36 40 42 42 43 43 43 42 41 41 39 39 38 36 35 34 32 31 28 27 26 24 22 19 18 16 13 12 10 8 5 3 3 4 3 3 3 2 2 0 4 4 8 13 8 9 4 2 7 7 3 8 12 12 12 11 11 10 9 10 11 13
30 33 36 38 39 41 41 42 42 44 45 46 45 42 38 37 33 27 27 27 26 29 31 33 37 41 43 45 45 43 42 42 41 40 39 38 36 35 34 33 31 29 28 27 25 23 20 18 16 15 13 11 10 7 6 6 4 3 3 3 2 1 3 1 5 7 4 8 9 6 8 8 4 1 10 12 11 12 10 11 11 9 10 11 12
31 34 36 38 38 39 40 40 41 42 43 43 43 41 39 39 37 32 29 28 25 29 36 39 41 44 44 45 44 44 43 42 42 41 39 38 37 36 35 33 32 30 29 27 24 23 20 19 17 15 13 11 11 9 9 9 7 7 5 5 4 2 3 3 1 2 2 6 9 11 11 10 4 4 13 10 10 14 9 12 13 8 9 9 9
31 31 31 34 35 36 38 40 40 41 41 42 43 42 41 41 41 40 38 36 34 37 42 41 42 44 43 43 44 44 44 43 43 42 41 40 38 37 36 34 32 31 30 27 25 23 21 19 17 16 14 13 13 12 12 11 9 9 7 6 6 5 5 4 4 1 2 5 6 8 11 9 8 10 15 9 12 15 12 15 12 7 7 6 6
27 26 29 32 34 35 37 39 39 40 41 42 44 44 43 42 42 41 39 40 40 39 38 36 38 40 41 41 43 44 45 44 43 43 42 41 40 39 37 35 33 32 31 28 26 24 22 20 18 17 16 15 13 12 13 14 11 11 11 9 7 6 6 5 6 5 2 2 4 6 8 8 12 15 13 10 13 16 17 18 11 6 6 3 4
23 26 30 32 34 35 36 38 38 39 40 42 45 46 45 44 44 42 40 40 39 35 33 34 34 37 39 40 41 43 44 44 44 43 43 43 42 41 38 37 36 34 32 29 27 25 23 22 21 21 19 17 15 13 13 14 13 13 14 13 10 8 7 6 7 7 6 3 3 3 4 5 11 16 11 10 15 19 20 18 8 4 4 3 4
22 24 27 29 32 34 35 37 39 39 40 43 45 46 45 44 44 43 41 39 36 31 30 32 33 35 38 39 40 41 43 44 44 43 43 43 43 41 40 39 37 35 33 31 29 27 26 24 23 22 20 18 17 15 14 13 13 14 14 14 15 13 8 6 8 8 7 6 5 4 4 4 8 16 11 10 18 21 18 12 5 4 4 4 5
18 21 24 28 31 33 35 37 38 39 41 43 45 46 46 45 45 45 43 40 36 33 32 33 35 36 37 38 39 40 42 43 45 44 44 44 43 42 41 40 38 37 35 33 32 30 28 26 24 22 21 19 18 17 16 15 15 15 14 14 15 14 10 8 11 12 8 5 4 4 5 4 9 14 11 13 19 19 16 10 5 6 6 5 4
Wind_Direction
178 172 168 159 160 165 162 163 165 171 171 171 174 176 171 168 167 166 164 159 157 157 153 149 147 144 143 141 140 139 136 134 131 131 132 127 122 125 125 118 110 100 99 95 100 100 98 102 94 92 85 81 70 56 50 45 50 47 47 45 40 48 56 55 49 49 51 52 58 62 62 59 54 51 43 41 55 56 52 53 48 42 37 35 38
176 172 170 163 162 162 162 160 160 165 167 168 171 175 170 168 168 168 165 160 161 158 151 149 147 143 143 142 140 138 134 135 130 128 125 122 121 117 114 109 106 96 96 100 97 100 104 112 108 107 99 94 84 71 58 47 49 45 36 38 39 37 44 54 55 55 56 57 59 61 60 56 52 53 44 36 45 50 48 50 52 50 45 38 32
169 170 172 166 164 162 163 162 161 160 163 164 164 169 166 167 167 165 162 159 160 156 154 151 147 143 142 142 139 138 135 134 129 127 126 126 125 116 114 108 104 97 92 103 100 108 111 115 118 111 104 104 95 83 68 58 58 56 42 35 34 29 31 44 56 59 59 60 58 56 56 56 52 50 47 37 37 42 43 41 42 37 37 41 36
168 171 172 171 168 164 163 164 166 162 162 162 161 163 162 165 164 161 158 158 158 154 154 150 147 144 142 141 138 139 136 136 134 133 132 129 125 114 113 112 106 98 92 102 107 111 111 115 114 107 110 111 102 92 86 76 75 74 52 31 24 20 24 34 48 59 62 61 58 53 52 58 52 44 41 36 38 44 43 32 29 24 18 20 20
171 171 174 175 170 167 165 165 170 170 166 162 162 162 161 163 159 159 156 154 157 155 154 152 151 148 143 139 139 140 137 138 139 138 135 125 122 113 108 111 107 102 99 102 103 105 112 118 115 113 119 117 108 99 91 75 65 58 31 13 6 4 13 25 39 49 59 58 48 49 53 62 53 43 31 24 45 54 40 25 20 21 14 10 6
174 173 176 177 171 170 168 168 172 175 171 164 165 163 161 162 159 157 156 155 157 155 156 157 155 149 144 142 143 143 140 142 143 145 139 122 120 119 113 114 110 108 113 113 108 105 113 117 115 119 126 131 133 98 32 27 17 1 344 337 340 347 358 13 30 38 48 49 39 42 48 60 56 47 30 21 46 54 31 19 12 14 12 11 10
176 175 178 179 176 173 172 173 175 176 173 170 170 166 164 165 164 163 162 165 165 161 160 161 161 153 150 149 144 139 140 143 148 151 142 128 128 132 122 117 114 115 118 129 126 115 128 140 148 150 155 184 218 252 284 302 311 310 311 315 322 331 340 350 6 23 31 33 33 41 41 50 54 51 33 18 20 22 19 16 9 9 11 11 12
178 178 180 181 182 180 180 179 178 181 180 178 177 173 169 169 171 171 171 174 173 172 168 167 168 163 161 159 152 149 154 153 151 140 134 128 126 131 133 134 139 145 140 159 180 173 180 197 206 206 207 214 228 243 264 275 289 296 300 305 310 317 321 329 338 353 9 16 15 29 28 39 45 44 35 11 359 6 16 11 6 2 4 7 7
181 181 182 184 185 185 186 184 182 186 186 184 182 177 172 172 173 174 176 175 176 178 176 172 172 172 169 166 163 162 166 159 145 131 125 126 128 140 157 161 161 171 174 175 187 192 191 197 210 223 238 243 252 260 268 274 286 293 299 301 301 305 305 310 316 326 338 350 344 338 351 20 31 23 41 8 354 358 5 359 1 359 358 358 356
183 183 184 186 187 187 186 186 184 185 187 185 183 177 172 173 174 173 176 175 175 177 175 173 169 168 165 162 160 156 158 152 142 140 139 143 156 163 167 168 164 166 157 143 156 186 202 210 226 237 247 254 261 269 276 282 291 291 294 294 295 297 297 297 297 301 308 315 304 268 298 336 22 23 46 21 355 341 350 354 358 0 360 357 350
184 185 185 186 187 185 183 183 180 181 182 179 179 174 172 173 174 173 173 174 172 174 171 170 167 165 165 163 163 162 162 157 154 159 163 166 169 170 169 168 167 163 150 143 151 177 194 207 219 225 235 241 249 261 274 284 289 291 293 292 295 297 297 296 291 287 282 279 275 266 257 243 194 50 29 20 4 340 342 352 355 353 350 351 347
186 187 187 188 187 185 180 178 177 177 176 175 176 174 175 174 174 173 173 173 172 173 171 170 168 168 171 171 174 176 176 172 171 170 170 170 166 165 166 167 167 168 164 157 153 149 151 163 172 178 188 186 191 212 239 267 280 288 297 300 302 301 302 301 296 290 279 265 256 259 235 222 192 91 26 10 0 339 337 341 340 341 342 346 344
186 188 187 187 187 187 180 177 177 176 177 176 177 176 177 175 175 175 173 173 173 173 171 172 173 173 176 177 180 182 182 181 180 176 170 166 161 157 154 157 160 163 163 157 145 130 121 121 123 128 131 132 134 133 136 140 265 303 318 321 324 321 318 311 303 292 276 256 238 228 200 167 139 85 47 21 357 327 338 344 338 332 330 341 345
187 188 188 189 189 190 184 180 178 176 180 179 179 178 178 177 177 176 174 174 173 171 173 178 180 180 181 181 183 182 181 179 175 172 167 161 153 149 146 146 146 147 148 145 138 128 122 119 120 122 122 121 119 116 117 111 98 65 37 19 15 13 5 356 351 317 210 193 184 159 155 149 113 73 56 30 11 357 358 360 6 359 333 335 342
192 189 190 192 193 193 190 187 181 178 182 180 180 180 179 178 177 176 175 174 172 177 183 187 186 186 188 188 187 184 179 174 167 164 160 154 148 144 141 138 138 137 135 132 129 126 125 125 126 125 122 116 111 108 105 96 85 73 59 45 36 34 31 26 37 67 114 128 124 127 134 138 112 69 47 33 20 15 12 360 4 8 359 353 354
197 194 193 195 197 196 195 192 186 182 182 181 182 181 181 180 179 178 176 177 180 187 191 191 191 192 193 191 188 184 179 173 166 161 156 152 148 145 141 139 137 134 131 128 126 126 124 123 120 115 112 106 103 98 91 83 75 67 58 50 41 37 35 30 33 51 75 101 106 119 129 130 116 73 38 27 17 12 6 341 336 343 346 350 347
198 199 198 198 201 201 199 197 190 186 184 184 185 183 183 181 180 182 184 189 191 194 195 194 194 192 190 187 184 180 175 171 166 162 157 154 151 148 145 141 138 136 135 132 132 131 126 119 111 106 104 100 97 93 87 79 72 66 58 49 41 35 33 30 28 36 42 50 85 114 126 119 108 67 24 11 358 344 332 306 299 311 314 311 307
199 203 204 205 205 204 204 201 195 192 191 190 190 189 188 187 189 192 195 197 196 197 197 195 192 188 185 183 179 175 172 168 166 163 160 157 153 150 147 143 140 138 137 136 136 131 124 119 113 110 107 103 100 96 90 83 77 70 65 59 50 41 35 34 33 36 37 37 47 261 205 114 33 349 344 344 337 325 314 298 289 300 303 301 300
201 205 208 210 209 208 206 203 200 197 197 196 195 195 194 196 197 199 199 198 197 197 196 193 189 185 183 180 177 173 170 169 167 165 162 160 156 153 150 147 145 142 139 136 133 127 124 121 118 116 113 112 109 103 98 92 87 80 75 71 64 58 51 47 46 46 43 45 53 67 112 57 307 311 319 321 322 316 311 306 301 303 303 300 299
204 208 210 212 211 209 207 205 204 202 201 200 200 199 200 200 200 201 199 198 197 196 194 191 187 185 183 180 177 174 172 170 168 166 163 162 161 159 155 152 151 148 146 142 138 133 130 127 123 122 120 119 116 115 113 106 102 95 88 84 77 71 65 60 59 58 52 52 57 67 81 73 35 352 331 320 320 317 311 312 312 313 312 308 304
207 209 211 212 211 210 209 208 206 205 204 203 203 203 203 202 201 201 199 198 197 196 194 191 189 186 183 180 178 176 174 172 171 169 167 165 165 163 159 156 156 154 151 148 144 141 138 135 131 127 123 121 119 119 118 115 112 106 102 96 92 82 71 66 64 63 57 56 57 63 73 70 65 40 8 355 351 345 338 336 336 340 344 343 339
208 209 212 212 212 212 211 210 208 207 206 205 206 206 205 203 202 201 199 199 197 198 196 193 191 185 182 181 179 178 175 174 174 173 171 170 170 166 163 162 161 159 157 155 153 152 149 145 141 138 132 127 127 125 121 116 112 107 105 102 99 86 76 69 63 63 59 55 52 53 64 63 63 48 18 7 5 1 2 4 2 3 4 3 2
209 210 212 213 213 214 213 212 210 209 207 207 207 207 207 205 203 201 201 201 200 201 199 195 191 186 184 182 182 180 178 178 177 176 175 173 172 170 168 166 165 164 164 163 161 158 154 152 148 144 141 136 137 131 123 116 110 102 93 84 78 75 71 66 60 56 52 47 45 42 46 56 55 48 23 7 1 358 2 6 7 9 8 8 7
211 212 212 212 214 214 215 214 212 210 209 208 208 208 208 206 204 203 203 203 203 203 200 196 192 189 187 185 184 183 182 182 181 180 178 177 175 173 171 168 167 164 163 161 156 152 148 145 140 137 136 132 129 118 111 103 93 83 70 60 53 54 53 47 42 40 40 32 26 26 21 28 38 41 28 10 0 352 355 359 4 9 10 11 11
212 213 214 214 214 215 215 214 213 212 211 210 208 209 208 208 206 204 205 205 205 203 201 198 194 192 189 188 187 187 187 185 185 183 181 181 177 174 172 168 166 161 157 155 149 144 139 134 132 130 125 117 111 101 93 82 71 64 56 54 48 44 39 33 29 22 19 12 3 360 357 3 15 26 30 13 4 359 356 356 4 8 10 11 11
213 215 216 216 216 216 216 215 214 212 212 212 211 210 209 209 208 206 205 205 205 203 201 199 196 194 192 191 191 191 190 189 188 185 183 181 178 174 170 166 164 157 153 151 143 137 134 130 127 121 111 103 94 82 74 65 57 52 46 44 39 36 32 25 19 10 2 355 346 338 339 344 358 23 35 18 10 8 4 4 8 8 8 9 9
214 217 217 217 216 216 216 216 215 213 213 213 213 212 211 211 210 208 206 205 204 203 202 200 198 196 195 196 196 195 194 191 189 186 183 180 177 173 168 165 162 156 151 149 143 136 133 127 122 110 99 89 75 65 57 54 47 42 38 34 30 28 25 18 10 360 351 344 338 331 327 333 344 15 38 28 16 11 12 12 12 11 9 10 11
216 219 219 217 218 217 216 216 216 215 213 213 214 214 213 213 212 210 208 207 205 205 204 201 199 198 198 199 200 199 196 193 189 186 183 179 177 173 169 166 163 159 153 151 148 141 136 127 117 104 96 83 66 57 48 45 39 36 33 28 25 23 20 14 4 354 345 339 339 335 331 335 342 1 35 42 23 14 17 17 15 15 14 15 15
220 221 219 219 219 218 216 216 216 216 215 213 214 215 215 214 213 211 209 209 208 208 206 203 201 201 201 202 202 201 198 194 191 188 184 180 177 175 171 169 167 164 159 157 155 149 142 131 120 106 95 80 63 52 45 38 34 30 26 24 21 17 13 6 358 352 344 338 341 343 343 347 359 12 32 60 37 20 20 19 18 20 20 20 18
223 221 220 221 220 218 217 217 217 216 215 214 215 215 215 215 214 212 210 210 210 209 208 206 205 204 205 205 206 203 200 197 193 190 186 181 179 177 175 172 171 169 166 165 159 156 151 139 127 109 89 74 60 51 46 36 30 25 21 19 15 11 5 358 352 346 342 341 344 350 356 2 19 38 56 77 59 32 24 22 22 23 24 24 20
223 222 223 222 220 218 218 217 217 216 215 214 215 216 216 216 215 213 212 211 211 210 209 209 208 207 208 208 208 205 202 200 196 193 188 184 183 181 179 178 177 174 172 173 168 165 161 152 138 114 83 60 49 47 42 29 26 19 14 12 11 9 359 351 345 339 339 341 350 360 17 35 57 73 77 79 72 52 31 24 25 24 23 22 20
222 224 224 221 219 220 219 217 216 215 215 215 215 216 217 216 215 213 212 212 212 211 210 210 210 210 210 210 210 205 202 202 199 196 192 189 187 186 184 182 182 180 177 178 175 171 167 160 147 124 87 60 45 42 33 20 16 11 11 7 4 1 355 349 339 333 338 348 8 33 65 82 83 83 79 74 70 64 43 29 26 22 20 20 19
224 226 223 220 222 221 219 217 215 214 214 216 216 216 217 216 216 214 213 213 212 212 212 212 212 211 211 210 210 206 204 205 202 199 197 194 192 190 188 185 184 183 181 180 179 175 170 162 151 137 117 80 50 44 26 11 5 4 8 3 359 357 351 345 332 331 343 6 51 82 92 92 86 79 74 69 63 59 50 40 30 21 20 21 18
226 223 221 223 223 220 218 216 213 214 214 215 215 215 216 216 215 214 213 214 213 213 213 213 214 212 212 212 210 208 207 207 205 203 200 197 196 193 191 188 186 186 185 183 181 178 171 166 157 149 144 126 78 33 6 360 359 360 3 0 358 354 347 339 327 330 350 46 88 97 94 87 80 75 70 63 53 45 38 32 25 19 18 19 18
224 221 224 225 222 218 216 215 213 214 213 213 214 214 215 215 215 214 213 214 214 214 214 214 214 213 213 213 211 210 209 208 207 206 203 200 198 196 193 190 189 188 186 184 183 180 174 170 164 162 164 166 221 325 350 353 353 356 359 359 355 352 346 332 322 328 9 89 99 93 81 69 63 60 58 52 39 28 18 12 10 8 8 9 15
224 223 225 222 219 218 216 214 213 213 213 213 213 213 214 214 215 214 213 214 214 215 215 215 215 214 213 213 212 212 211 209 208 208 206 203 200 198 195 192 191 189 188 185 183 182 178 176 171 171 177 178 223 308 344 345 348 354 357 356 354 352 343 327 322 344 89 108 98 82 62 43 27 17 18 17 10 5 359 358 358 359 359 359 5
227 224 222 219 218 218 215 214 214 213 212 211 211 211 212 213 214 214 214 214 215 216 215 215 214 214 213 213 213 213 213 211 209 209 208 206 203 200 196 193 192 190 189 187 184 183 182 182 176 169 175 182 196 280 337 341 345 350 355 357 355 352 341 331 348 74 116 115 95 71 39 17 5 358 356 357 1 4 1 359 357 355 353 351 352
229 225 221 220 219 217 214 214 215 213 211 209 208 209 210 212 213 213 213 214 215 216 215 215 214 214 214 214 214 214 215 213 210 209 209 209 204 200 198 195 193 192 191 189 186 184 183 185 181 171 173 185 194 293 331 337 345 350 356 358 1 358 343 5 84 103 112 94 61 33 10 2 359 5 18 18 14 11 4 359 354 350 347 346 343
228 226 222 221 219 217 215 213 212 210 208 207 205 205 208 209 210 212 213 214 214 215 216 215 215 215 215 215 215 215 215 214 212 210 210 209 205 201 200 197 196 194 193 191 189 188 186 185 184 177 173 180 233 323 335 340 346 349 354 3 16 13 356 110 108 93 64 33 26 20 12 8 3 13 27 22 13 6 358 352 348 346 345 346 344
228 225 220 217 216 215 212 211 209 207 203 201 201 201 202 204 206 207 210 212 213 215 216 216 216 216 216 216 215 215 216 214 212 211 210 210 206 203 201 199 198 197 197 196 193 192 190 188 186 183 180 179 204 314 332 340 340 338 351 15 39 27 21 141 125 79 50 52 58 59 61 40 25 24 19 13 7 357 348 345 346 348 350 348 344
224 221 217 214 214 213 209 208 206 203 199 198 197 197 198 198 200 204 207 210 211 213 215 216 217 217 217 216 216 216 216 214 213 212 211 210 208 205 202 201 200 200 201 200 196 192 191 192 190 183 184 186 183 245 331 336 343 345 348 14 48 52 115 165 151 84 50 68 69 59 68 35 20 27 16 11 2 350 341 342 346 351 351 345 343
218 216 215 214 212 210 208 207 203 199 199 199 197 198 200 200 201 204 207 208 209 211 213 214 215 216 216 216 216 216 215 215 214 212 212 211 208 206 204 203 203 201 199 196 195 195 194 196 196 189 184 185 188 177 11 354 14 28 9 6 38 50 72 176 183 174 21 14 359 51 58 20 11 28 14 4 356 349 338 338 344 347 346 343 344
218 215 214 213 209 207 207 205 201 199 200 200 199 200 202 203 203 205 206 206 209 211 212 213 213 214 215 216 217 216 216 216 215 214 213 212 210 209 207 206 204 201 197 195 196 197 198 198 198 199 190 179 179 172 121 55 55 62 53 31 20 24 24 42 201 227 303 296 250 212 46 7 10 37 7 356 350 346 337 338 342 343 342 342 343
216 213 210 209 206 206 205 202 201 200 199 200 201 201 201 201 202 206 206 205 208 209 211 213 213 213 215 216 217 217 217 216 215 214 214 213 212 211 210 207 206 203 200 200 201 200 201 200 200 202 198 184 176 175 168 123 80 69 66 75 60 42 291 349 325 274 295 261 203 201 275 340 3 45 356 349 349 346 341 345 344 340 340 338 340
214 213 209 207 206 205 204 202 201 200 199 199 199 198 196 195 196 199 199 200 204 204 205 210 211 213 214 214 216 216 216 217 215 215 215 215 214 213 212 210 207 205 204 206 207 205 204 203 203 205 203 195 185 178 170 153 115 130 141 134 107 41 213 309 343 308 297 180 195 264 273 309 331 346 344 344 353 353 347 350 346 341 341 337 341
218 216 212 209 207 205 202 200 199 199 198 198 196 195 193 192 191 189 188 191 195 199 205 208 209 210 212 213 214 214 215 216 216 215 216 216 216 215 214 212 210 207 206 207 208 207 204 203 204 204 202 198 192 183 173 166 149 153 166 173 183 216 189 135 68 309 307 216 245 259 262 297 272 280 332 331 348 355 349 347 346 347 347 342 348
222 218 213 210 206 203 200 199 198 197 197 196 195 194 193 193 193 193 193 193 197 205 209 210 210 210 210 212 213 213 215 216 217 216 216 217 217 217 215 214 212 210 208 207 206 207 205 203 203 200 199 198 194 188 179 172 162 162 172 182 193 203 183 154 169 195 318 266 254 239 257 284 248 281 319 311 335 348 342 341 345 353 354 354 5
223 215 211 208 205 203 200 198 197 197 196 196 195 195 195 195 196 198 200 201 204 209 210 209 211 210 210 212 213 213 215 216 217 217 216 217 217 217 216 214 213 212 210 208 207 207 204 202 200 197 198 199 197 193 186 180 177 172 172 179 190 196 197 193 192 181 158 255 281 245 252 261 252 284 304 285 318 338 334 336 342 349 357 25 26
219 213 210 207 204 201 199 197 196 196 196 196 196 197 198 198 198 199 202 206 209 211 209 208 210 210 209 211 212 213 214 215 216 217 217 218 218 217 215 214 213 212 210 209 207 206 205 204 203 201 200 199 197 198 196 194 192 184 178 180 180 179 187 193 198 196 179 204 262 230 246 273 278 296 292 269 308 327 329 332 338 354 16 47 25
215 210 206 203 200 198 196 195 196 196 196 197 197 198 200 200 201 202 204 207 207 208 208 207 208 209 208 209 211 212 213 213 215 217 218 218 218 217 216 214 214 212 210 208 206 205 205 206 207 206 205 201 198 199 200 202 198 193 189 185 178 172 173 182 196 201 195 210 234 236 239 244 292 305 295 280 309 325 332 337 358 16 22 29 22
206 202 200 198 196 195 194 195 197 197 197 198 199 200 201 202 204 205 206 206 204 203 203 204 205 206 206 208 209 210 212 214 214 215 217 218 218 218 216 215 214 212 211 209 208 207 205 206 206 205 205 204 203 200 199 201 197 195 196 194 190 185 186 192 193 193 189 197 232 258 240 241 281 286 289 303 314 330 341 342 3 14 13 22 29